When you browse on this site, cookies collect data to enhance your experience and personalize the content and advertising you see.
Visit our Privacy Policy to learn more. By continuing to use the site, you agree to this use of cookies and data.
EN

Hourly Weather Gogolin

Today, 27 September, Sunday

Time Temperature Precipitation Wind Pressure Humidity
00:00 +11°C° 1.2 mm 4 mps 733 mmHg 88%
01:00 +10°C° 1.2 mm 5 mps 733 mmHg 89%
02:00 +10°C° 2.6 mm 5 mps 733 mmHg 90%
03:00 +9°C° 2.6 mm 6 mps 732 mmHg 92%
04:00 +9°C° 2.6 mm 6 mps 732 mmHg 93%
05:00 +9°C° 2.7 mm 6 mps 732 mmHg 93%
06:00 +9°C° 2.7 mm 7 mps 733 mmHg 93%
07:00 +9°C° 2.7 mm 7 mps 733 mmHg 93%
08:00 +9°C° 1.8 mm 7 mps 733 mmHg 92%
09:00 +8°C° 1.8 mm 7 mps 733 mmHg 92%
10:00 +7°C° 1.8 mm 8 mps 734 mmHg 91%
11:00 +8°C° 1 mm 7 mps 734 mmHg 89%
12:00 +8°C° 1 mm 7 mps 735 mmHg 88%
13:00 +8°C° 1 mm 7 mps 736 mmHg 86%
14:00 +9°C° 0.6 mm 6 mps 736 mmHg 86%
15:00 +9°C° 0.6 mm 5 mps 737 mmHg 85%
16:00 +10°C° 0.6 mm 4 mps 738 mmHg 85%
17:00 +10°C° 0.2 mm 4 mps 738 mmHg 85%
18:00 +10°C° 0.2 mm 3 mps 739 mmHg 85%
19:00 +10°C° 0.2 mm 2 mps 739 mmHg 85%
20:00 +10°C° 0 mm 3 mps 740 mmHg 86%
21:00 +8°C° 0 mm 4 mps 741 mmHg 86%
22:00 +8°C° 0 mm 4 mps 742 mmHg 86%
23:00 +8°C° 0 mm 4 mps 742 mmHg 86%

Tomorrow, 28 September, Monday

Time Temperature Precipitation Wind Pressure Humidity
00:00 +7°C° 0 mm 4 mps 742 mmHg 86%
01:00 +7°C° 0 mm 4 mps 743 mmHg 87%
02:00 +8°C° 0 mm 3 mps 743 mmHg 86%
03:00 +8°C° 0 mm 3 mps 743 mmHg 86%
04:00 +7°C° 0 mm 3 mps 743 mmHg 85%
05:00 +8°C° 0 mm 3 mps 744 mmHg 82%
06:00 +8°C° 0 mm 3 mps 744 mmHg 80%
07:00 +9°C° 0 mm 3 mps 744 mmHg 77%
08:00 +11°C° 0 mm 4 mps 744 mmHg 70%
09:00 +13°C° 0 mm 4 mps 744 mmHg 63%
10:00 +15°C° 0 mm 5 mps 744 mmHg 56%
11:00 +16°C° 0 mm 5 mps 744 mmHg 54%
12:00 +17°C° 0 mm 4 mps 744 mmHg 52%
13:00 +18°C° 0 mm 4 mps 744 mmHg 50%
14:00 +18°C° 0 mm 4 mps 744 mmHg 54%
15:00 +17°C° 0 mm 3 mps 743 mmHg 58%
16:00 +17°C° 0 mm 3 mps 743 mmHg 62%
17:00 +16°C° 0 mm 3 mps 743 mmHg 67%
18:00 +16°C° 0 mm 3 mps 744 mmHg 72%
19:00 +14°C° 0 mm 3 mps 744 mmHg 76%
20:00 +15°C° 0 mm 2 mps 744 mmHg 79%
21:00 +14°C° 0 mm 1 mps 744 mmHg 82%
22:00 +14°C° 0 mm 1 mps 744 mmHg 85%
23:00 +14°C° 0 mm 1 mps 744 mmHg 85%

Day after tomorrow, 29 September, Tuesday

Time Temperature Precipitation Wind Pressure Humidity
00:00 +14°C° 0 mm 1 mps 744 mmHg 86%
01:00 +14°C° 0 mm 1 mps 744 mmHg 86%
02:00 +14°C° 0.1 mm 1 mps 744 mmHg 86%
03:00 +13°C° 0.1 mm 1 mps 743 mmHg 87%
04:00 +13°C° 0.1 mm 1 mps 743 mmHg 87%
05:00 +14°C° 0 mm 1 mps 743 mmHg 87%
06:00 +14°C° 0 mm 1 mps 744 mmHg 86%
07:00 +14°C° 0 mm 1 mps 744 mmHg 86%
08:00 +15°C° 0 mm 2 mps 744 mmHg 82%
09:00 +15°C° 0 mm 2 mps 744 mmHg 79%
10:00 +16°C° 0 mm 2 mps 744 mmHg 75%
11:00 +17°C° 0.1 mm 2 mps 744 mmHg 73%
12:00 +17°C° 0.1 mm 3 mps 744 mmHg 71%
13:00 +18°C° 0.1 mm 3 mps 744 mmHg 69%
14:00 +18°C° 0.1 mm 3 mps 744 mmHg 71%
15:00 +17°C° 0.1 mm 3 mps 744 mmHg 72%
16:00 +17°C° 0.1 mm 3 mps 744 mmHg 74%
17:00 +16°C° 0 mm 3 mps 744 mmHg 78%
18:00 +14°C° 0 mm 3 mps 744 mmHg 82%
19:00 +14°C° 0 mm 2 mps 744 mmHg 87%
20:00 +14°C° 0 mm 2 mps 744 mmHg 89%
21:00 +13°C° 0 mm 2 mps 744 mmHg 91%
22:00 +13°C° 0 mm 2 mps 744 mmHg 93%
23:00 +13°C° 0 mm 2 mps 744 mmHg 93%

30 September, Wednesday

Time Temperature Precipitation Wind Pressure Humidity
00:00 +13°C° 0 mm 2 mps 744 mmHg 93%
01:00 +13°C° 0 mm 2 mps 744 mmHg 93%
02:00 +13°C° 0 mm 2 mps 744 mmHg 93%
03:00 +13°C° 0 mm 2 mps 744 mmHg 92%
04:00 +13°C° 0 mm 2 mps 744 mmHg 92%
05:00 +13°C° 0 mm 2 mps 743 mmHg 92%
06:00 +14°C° 0 mm 2 mps 743 mmHg 92%
07:00 +13°C° 0 mm 3 mps 743 mmHg 92%
08:00 +13°C° 0 mm 3 mps 743 mmHg 89%
09:00 +14°C° 0 mm 3 mps 743 mmHg 86%
10:00 +14°C° 0 mm 3 mps 743 mmHg 83%
11:00 +15°C° 0 mm 4 mps 742 mmHg 78%
12:00 +17°C° 0 mm 4 mps 742 mmHg 73%
13:00 +17°C° 0 mm 5 mps 742 mmHg 68%
14:00 +17°C° 0.1 mm 5 mps 741 mmHg 70%
15:00 +18°C° 0.1 mm 4 mps 741 mmHg 72%
16:00 +17°C° 0.1 mm 4 mps 741 mmHg 74%
17:00 +17°C° 0.3 mm 4 mps 741 mmHg 77%
18:00 +17°C° 0.3 mm 4 mps 741 mmHg 79%
19:00 +15°C° 0.3 mm 4 mps 741 mmHg 81%
20:00 +16°C° 0.2 mm 3 mps 740 mmHg 82%
21:00 +14°C° 0.2 mm 3 mps 740 mmHg 84%
22:00 +14°C° 0.2 mm 3 mps 740 mmHg 86%
23:00 +13°C° 0.6 mm 3 mps 740 mmHg 88%

1 October, Thursday

Time Temperature Precipitation Wind Pressure Humidity
00:00 +13°C° 0.6 mm 3 mps 740 mmHg 90%
01:00 +12°C° 0.6 mm 3 mps 739 mmHg 93%
02:00 +12°C° 0.3 mm 3 mps 739 mmHg 92%
03:00 +12°C° 0.3 mm 3 mps 739 mmHg 92%
04:00 +12°C° 0.3 mm 3 mps 739 mmHg 92%
05:00 +12°C° 0.1 mm 3 mps 739 mmHg 92%
06:00 +12°C° 0.1 mm 3 mps 739 mmHg 91%
07:00 +12°C° 0.1 mm 3 mps 739 mmHg 90%
08:00 +12°C° 0.1 mm 3 mps 738 mmHg 90%
09:00 +12°C° 0.1 mm 3 mps 738 mmHg 90%
10:00 +13°C° 0.1 mm 2 mps 738 mmHg 89%
11:00 +13°C° 0.2 mm 2 mps 738 mmHg 90%
12:00 +13°C° 0.2 mm 2 mps 738 mmHg 91%
13:00 +13°C° 0.2 mm 2 mps 738 mmHg 92%
14:00 +13°C° 0.2 mm 2 mps 738 mmHg 93%
15:00 +13°C° 0.2 mm 2 mps 737 mmHg 93%
16:00 +13°C° 0.2 mm 1 mps 737 mmHg 94%
17:00 +13°C° 0.3 mm 1 mps 737 mmHg 94%
18:00 +13°C° 0.3 mm 1 mps 737 mmHg 95%
19:00 +13°C° 0.3 mm 1 mps 737 mmHg 96%
20:00 +13°C° 0.4 mm 1 mps 737 mmHg 96%
21:00 +13°C° 0.4 mm 1 mps 737 mmHg 96%
22:00 +13°C° 0.4 mm 1 mps 737 mmHg 97%
23:00 +13°C° 0.4 mm 1 mps 736 mmHg 96%

2 October, Friday

Time Temperature Precipitation Wind Pressure Humidity
00:00 +13°C° 0.4 mm 1 mps 736 mmHg 96%
01:00 +13°C° 0.4 mm 2 mps 736 mmHg 96%
02:00 +13°C° 0.2 mm 2 mps 736 mmHg 96%
03:00 +13°C° 0.2 mm 2 mps 736 mmHg 96%
04:00 +13°C° 0.2 mm 2 mps 735 mmHg 96%
05:00 +12°C° 0.8 mm 3 mps 735 mmHg 96%
06:00 +12°C° 0.8 mm 3 mps 735 mmHg 96%
07:00 +12°C° 0.8 mm 3 mps 735 mmHg 95%
08:00 +12°C° 0.5 mm 4 mps 736 mmHg 94%
09:00 +12°C° 0.5 mm 4 mps 736 mmHg 93%
10:00 +12°C° 0.5 mm 4 mps 736 mmHg 91%
11:00 +12°C° 0.4 mm 4 mps 736 mmHg 91%
12:00 +12°C° 0.4 mm 4 mps 736 mmHg 91%
13:00 +13°C° 0.4 mm 4 mps 736 mmHg 90%
14:00 +13°C° 0.1 mm 4 mps 736 mmHg 89%
15:00 +13°C° 0.1 mm 4 mps 737 mmHg 88%
16:00 +13°C° 0.1 mm 4 mps 737 mmHg 87%
17:00 +13°C° 0.2 mm 4 mps 737 mmHg 88%
18:00 +13°C° 0.2 mm 4 mps 737 mmHg 89%
19:00 +13°C° 0.2 mm 5 mps 737 mmHg 89%
20:00 +12°C° 0.1 mm 5 mps 737 mmHg 89%
21:00 +12°C° 0.1 mm 5 mps 738 mmHg 89%
22:00 +12°C° 0.1 mm 5 mps 738 mmHg 89%
23:00 +12°C° 0 mm 5 mps 738 mmHg 90%
Show more